• In Belgien
  • Länderverzeichnis
  • Für 7 Tage
  • Wassertemperatur
  • Satellitenkarten
  • Wetterkarte
  • Widgets
  • user-avatar
    Anmelden

    Stündliche Wetter Kozani

    Heute, 18 Juni, Montag

    Zeit Temperatur Niederschläge Wind Luftdruck Luftfeuchtigkeit
    00:00 +16°C° 0 mm 1 m/S 701 mmHg 79%
    01:00 +16°C° 0 mm 1 m/S 700 mmHg 81%
    02:00 +16°C° 0,1 mm 1 m/S 700 mmHg 82%
    03:00 +16°C° 0,1 mm 1 m/S 700 mmHg 83%
    04:00 +15°C° 0,1 mm 1 m/S 700 mmHg 84%
    05:00 +18°C° 0,1 mm 1 m/S 701 mmHg 79%
    06:00 +20°C° 0,1 mm 1 m/S 701 mmHg 74%
    07:00 +21°C° 0,1 mm 1 m/S 701 mmHg 69%
    08:00 +23°C° 0,7 mm 1 m/S 701 mmHg 65%
    09:00 +24°C° 0,7 mm 2 m/S 701 mmHg 61%
    10:00 +25°C° 0,7 mm 2 m/S 701 mmHg 57%
    11:00 +26°C° 1,6 mm 2 m/S 701 mmHg 55%
    12:00 +26°C° 1,6 mm 2 m/S 701 mmHg 54%
    13:00 +27°C° 1,6 mm 2 m/S 701 mmHg 53%
    14:00 +27°C° 1,6 mm 2 m/S 701 mmHg 54%
    15:00 +26°C° 1,6 mm 1 m/S 701 mmHg 55%
    16:00 +26°C° 1,6 mm 1 m/S 701 mmHg 56%
    17:00 +25°C° 0,9 mm 1 m/S 701 mmHg 61%
    18:00 +23°C° 0,9 mm 1 m/S 701 mmHg 66%
    19:00 +20°C° 0,9 mm 0 m/S 701 mmHg 71%
    20:00 +21°C° 0,8 mm 1 m/S 701 mmHg 74%
    21:00 +20°C° 0,8 mm 1 m/S 701 mmHg 76%
    22:00 +19°C° 0,8 mm 1 m/S 701 mmHg 79%
    23:00 +19°C° 0,2 mm 1 m/S 701 mmHg 80%

    Morgen, 19 Juni, Dienstag

    Zeit Temperatur Niederschläge Wind Luftdruck Luftfeuchtigkeit
    00:00 +19°C° 0,2 mm 1 m/S 701 mmHg 82%
    01:00 +18°C° 0,2 mm 1 m/S 701 mmHg 84%
    02:00 +18°C° 0,2 mm 1 m/S 701 mmHg 85%
    03:00 +18°C° 0,2 mm 1 m/S 702 mmHg 86%
    04:00 +18°C° 0,2 mm 1 m/S 702 mmHg 87%
    05:00 +18°C° 0,2 mm 2 m/S 702 mmHg 82%
    06:00 +19°C° 0,2 mm 2 m/S 702 mmHg 78%
    07:00 +21°C° 0,2 mm 2 m/S 703 mmHg 74%
    08:00 +23°C° 1 mm 2 m/S 703 mmHg 70%
    09:00 +24°C° 1 mm 2 m/S 703 mmHg 66%
    10:00 +25°C° 1 mm 2 m/S 704 mmHg 62%
    11:00 +25°C° 1,6 mm 2 m/S 704 mmHg 62%
    12:00 +25°C° 1,6 mm 2 m/S 704 mmHg 61%
    13:00 +25°C° 1,6 mm 2 m/S 704 mmHg 61%
    14:00 +25°C° 1,9 mm 2 m/S 704 mmHg 62%
    15:00 +25°C° 1,9 mm 2 m/S 704 mmHg 63%
    16:00 +25°C° 1,9 mm 2 m/S 704 mmHg 64%
    17:00 +24°C° 0,9 mm 1 m/S 704 mmHg 67%
    18:00 +22°C° 0,9 mm 1 m/S 704 mmHg 71%
    19:00 +21°C° 0,9 mm 1 m/S 704 mmHg 75%
    20:00 +20°C° 0,3 mm 1 m/S 704 mmHg 76%
    21:00 +20°C° 0,3 mm 1 m/S 704 mmHg 77%
    22:00 +19°C° 0,3 mm 1 m/S 705 mmHg 78%
    23:00 +19°C° 0,1 mm 1 m/S 705 mmHg 79%

    übermorgen, 20 Juni, Mittwoch

    Zeit Temperatur Niederschläge Wind Luftdruck Luftfeuchtigkeit
    00:00 +19°C° 0,1 mm 1 m/S 705 mmHg 80%
    01:00 +18°C° 0,1 mm 1 m/S 705 mmHg 81%
    02:00 +18°C° 0 mm 1 m/S 705 mmHg 81%
    03:00 +18°C° 0 mm 1 m/S 705 mmHg 81%
    04:00 +18°C° 0 mm 1 m/S 705 mmHg 81%
    05:00 +19°C° 0 mm 1 m/S 705 mmHg 76%
    06:00 +21°C° 0 mm 1 m/S 705 mmHg 72%
    07:00 +22°C° 0 mm 1 m/S 706 mmHg 67%
    08:00 +23°C° 0,1 mm 2 m/S 706 mmHg 62%
    09:00 +25°C° 0,1 mm 2 m/S 706 mmHg 56%
    10:00 +26°C° 0,1 mm 2 m/S 707 mmHg 51%
    11:00 +26°C° 0,1 mm 3 m/S 706 mmHg 50%
    12:00 +26°C° 0,1 mm 3 m/S 706 mmHg 49%
    13:00 +27°C° 0,1 mm 3 m/S 706 mmHg 49%
    14:00 +26°C° 0,1 mm 2 m/S 706 mmHg 50%
    15:00 +26°C° 0,1 mm 2 m/S 706 mmHg 51%
    16:00 +26°C° 0,1 mm 2 m/S 706 mmHg 52%
    17:00 +24°C° 0,2 mm 2 m/S 706 mmHg 57%
    18:00 +23°C° 0,2 mm 1 m/S 706 mmHg 62%
    19:00 +21°C° 0,2 mm 1 m/S 706 mmHg 66%
    20:00 +21°C° 0,1 mm 1 m/S 706 mmHg 68%
    21:00 +20°C° 0,1 mm 1 m/S 706 mmHg 69%
    22:00 +19°C° 0,1 mm 1 m/S 706 mmHg 70%
    23:00 +19°C° 0 mm 1 m/S 706 mmHg 70%

    21 Juni, Donnerstag

    Zeit Temperatur Niederschläge Wind Luftdruck Luftfeuchtigkeit
    00:00 +19°C° 0 mm 1 m/S 706 mmHg 71%
    01:00 +19°C° 0 mm 1 m/S 705 mmHg 71%
    02:00 +18°C° 0 mm 1 m/S 705 mmHg 72%
    03:00 +18°C° 0 mm 1 m/S 705 mmHg 72%
    04:00 +18°C° 0 mm 1 m/S 705 mmHg 73%
    05:00 +19°C° 0 mm 1 m/S 705 mmHg 69%
    06:00 +21°C° 0 mm 1 m/S 705 mmHg 65%
    07:00 +23°C° 0 mm 1 m/S 706 mmHg 62%
    08:00 +24°C° 0,1 mm 1 m/S 706 mmHg 57%
    09:00 +26°C° 0,1 mm 1 m/S 706 mmHg 53%
    10:00 +27°C° 0,1 mm 1 m/S 706 mmHg 48%
    11:00 +27°C° 0,1 mm 1 m/S 706 mmHg 47%
    12:00 +28°C° 0,1 mm 1 m/S 705 mmHg 46%
    13:00 +28°C° 0,1 mm 1 m/S 705 mmHg 45%
    14:00 +28°C° 0,1 mm 1 m/S 705 mmHg 46%
    15:00 +28°C° 0,1 mm 1 m/S 704 mmHg 48%
    16:00 +27°C° 0,1 mm 1 m/S 704 mmHg 50%
    17:00 +26°C° 0,1 mm 1 m/S 704 mmHg 54%
    18:00 +24°C° 0,1 mm 1 m/S 704 mmHg 58%
    19:00 +23°C° 0,1 mm 1 m/S 704 mmHg 62%
    20:00 +22°C° 0,1 mm 1 m/S 704 mmHg 64%
    21:00 +21°C° 0,1 mm 1 m/S 704 mmHg 66%
    22:00 +20°C° 0,1 mm 1 m/S 704 mmHg 68%
    23:00 +20°C° 0 mm 1 m/S 703 mmHg 70%

    22 Juni, Freitag

    Zeit Temperatur Niederschläge Wind Luftdruck Luftfeuchtigkeit
    00:00 +19°C° 0 mm 1 m/S 703 mmHg 72%
    01:00 +19°C° 0 mm 1 m/S 703 mmHg 74%
    02:00 +19°C° 0 mm 1 m/S 703 mmHg 75%
    03:00 +18°C° 0 mm 1 m/S 702 mmHg 77%
    04:00 +18°C° 0 mm 1 m/S 702 mmHg 78%
    05:00 +20°C° 0 mm 1 m/S 702 mmHg 73%
    06:00 +21°C° 0 mm 1 m/S 703 mmHg 68%
    07:00 +23°C° 0 mm 1 m/S 703 mmHg 64%
    08:00 +25°C° 0,2 mm 1 m/S 703 mmHg 58%
    09:00 +26°C° 0,2 mm 1 m/S 703 mmHg 53%
    10:00 +28°C° 0,2 mm 1 m/S 703 mmHg 48%
    11:00 +28°C° 0,3 mm 1 m/S 703 mmHg 46%
    12:00 +29°C° 0,3 mm 2 m/S 703 mmHg 45%
    13:00 +29°C° 0,3 mm 2 m/S 702 mmHg 43%
    14:00 +29°C° 0,2 mm 2 m/S 702 mmHg 46%
    15:00 +29°C° 0,2 mm 3 m/S 702 mmHg 48%
    16:00 +28°C° 0,2 mm 3 m/S 701 mmHg 51%
    17:00 +26°C° 0,4 mm 3 m/S 701 mmHg 57%
    18:00 +25°C° 0,4 mm 2 m/S 701 mmHg 64%
    19:00 +23°C° 0,4 mm 2 m/S 701 mmHg 71%
    20:00 +21°C° 0,8 mm 2 m/S 701 mmHg 74%
    21:00 +20°C° 0,8 mm 2 m/S 701 mmHg 77%
    22:00 +20°C° 0,8 mm 2 m/S 701 mmHg 80%
    23:00 +19°C° 0,3 mm 2 m/S 701 mmHg 81%

    23 Juni, Samstag

    Zeit Temperatur Niederschläge Wind Luftdruck Luftfeuchtigkeit
    00:00 +19°C° 0,3 mm 2 m/S 701 mmHg 83%
    01:00 +18°C° 0,3 mm 2 m/S 701 mmHg 84%
    02:00 +18°C° 0,4 mm 2 m/S 701 mmHg 86%
    03:00 +18°C° 0,4 mm 2 m/S 701 mmHg 87%
    04:00 +17°C° 0,4 mm 2 m/S 701 mmHg 88%
    05:00 +18°C° 0,2 mm 2 m/S 702 mmHg 83%
    06:00 +20°C° 0,2 mm 2 m/S 702 mmHg 78%
    07:00 +21°C° 0,2 mm 2 m/S 702 mmHg 72%
    08:00 +24°C° 0 mm 2 m/S 703 mmHg 66%
    09:00 +25°C° 0 mm 2 m/S 703 mmHg 61%
    10:00 +27°C° 0 mm 1 m/S 703 mmHg 55%
    11:00 +27°C° 0,4 mm 1 m/S 703 mmHg 53%
    12:00 +28°C° 0,4 mm 1 m/S 703 mmHg 51%
    13:00 +29°C° 0,4 mm 1 m/S 703 mmHg 49%
    14:00 +28°C° 0,5 mm 1 m/S 702 mmHg 50%
    15:00 +28°C° 0,5 mm 1 m/S 702 mmHg 52%
    16:00 +27°C° 0,5 mm 1 m/S 702 mmHg 54%
    17:00 +26°C° 0,8 mm 1 m/S 702 mmHg 60%
    18:00 +24°C° 0,8 mm 2 m/S 702 mmHg 66%
    19:00 +21°C° 0,8 mm 2 m/S 702 mmHg 72%
    20:00 +20°C° 0,7 mm 2 m/S 703 mmHg 76%
    21:00 +19°C° 0,7 mm 2 m/S 703 mmHg 80%
    22:00 +19°C° 0,7 mm 1 m/S 703 mmHg 83%
    23:00 +18°C° 0,2 mm 1 m/S 703 mmHg 84%
    Mehr zeigen